Location: Township of Marena
(38.1747°N, 99.6798°W)
Time: 03:19:12
(UTC+00:00)

SJ-12 - Pass Details

Date: 26 October 2020
Orbit: 568 x 585 km, 97.7° (Epoch: 24 November)

Event Time Altitude Azimuth Distance (km) Brightness Sun altitude
Rises 11:42:17 0° 12° (NNE) 2,806 7.5 -15.7°
Reaches altitude 10° 11:44:27 10° 12° (NNE) 1,900 6.7 -15.3°
Maximum altitude 11:48:35 89° 101° (E) 582 3.9 -14.4°
Drops below altitude 10° 11:52:39 10° 193° (SSW) 1,875 6.5 -13.6°
Sets 11:54:47 0° 193° (SSW) 2,765 7.3 -13.2°
